sat.trackr.live / text

‹ back to catalog

STARLINK-32868

NORAD 62854 · 2025-022A

PAYLOAD ACTIVE UNKNOWN

§ Identity

Operator
Country
US
Launch date
2025-02-01
Launch site
AFWTR
Launch vehicle
Mass (kg)
RCS (m²)

Purposes: comms

External: N2YO · Heavens-Above · Gunter

§ Orbital elements

Epoch: 2026-09-21T09:53:05.865216Z

Period
93.85 min
Inclination
53.1599°
Eccentricity
0.0000836
Mean motion
15.34396320 rev/d
Perigee alt
462.1 km
Apogee alt
463.3 km
Semi-major
6,840.9 km
B*
3.2328e-4
RAAN
295.7131°
Arg perigee
107.9800°
Mean anomaly
252.1294°
Rev number
9,274

§ Raw data

STARLINK-328681 62854U 25022A   26264.41187344  .00010561  00000+0  32328-3 0  99912 62854  53.1599 295.7131 0000836 107.9800 252.1294 15.34396320 92742

JSON: /api/v1/satellites/62854 · /tle

For live sub-satellite position, see the globe view (requires WebGL).

§ Visibility from observer

Set your observer location to see the next 7 days of passes ≥ 10°. The values pass through the URL so the page stays shareable.

No JS? Fill the form by hand. The geolocation button needs JavaScript.